This is the latest recevied weather packets stored in our database for station/object NK7E-1. If no packets are shown the sender has not sent any weather packets the latest 10 day(s).
| Time | Temp. | Humidity | Pressure | Rain* | Wind** | Luminosity | Snow |
|---|---|---|---|---|---|---|---|
| 1778028600 | 22.22° C | 31% | 1011.3 hPa | 0 mm | - | - | - |
| 1778028002 | 22.22° C | 29% | 1011.1 hPa | 0 mm | - | - | - |
| 1778027401 | 22.22° C | 27% | 1011.1 hPa | 0 mm | - | - | - |
| 1778026800 | 22.78° C | 27% | 1011 hPa | 0 mm | - | - | - |
| 1778026201 | 23.33° C | 27% | 1011.1 hPa | 0 mm | - | - | - |
| 1778025603 | 23.33° C | 27% | 1010.9 hPa | 0 mm | - | - | - |
| 1778025000 | 22.78° C | 28% | 1010.9 hPa | 0 mm | - | - | - |
| 1778024400 | 22.78° C | 28% | 1010.7 hPa | 0 mm | - | - | - |
| 1778023802 | 23.33° C | 28% | 1010.7 hPa | 0 mm | - | - | - |
| 1778023200 | 23.33° C | 28% | 1010.6 hPa | 0 mm | - | - | - |
| 1778022600 | 23.33° C | 28% | 1010.7 hPa | 0 mm | - | - | - |
| 1778022004 | 23.89° C | 28% | 1010.7 hPa | 0 mm | - | - | - |
| 1778021400 | 23.33° C | 29% | 1010.9 hPa | 0 mm | - | - | - |
| 1778020801 | 23.33° C | 29% | 1010.8 hPa | 0 mm | - | - | - |
| 1778020200 | 23.33° C | 29% | 1011 hPa | 0 mm | - | - | - |
| 1778019601 | 23.89° C | 28% | 1011.1 hPa | 0 mm | - | - | - |
| 1778019000 | 23.89° C | 27% | 1011.2 hPa | 0 mm | - | - | - |
| 1778018403 | 23.33° C | 28% | 1011.2 hPa | 0 mm | - | - | - |
| 1778017800 | 24.44° C | 27% | 1011.4 hPa | 0 mm | - | - | - |
| 1778017200 | 23.89° C | 29% | 1011.7 hPa | 0 mm | - | - | - |
| 1778016602 | 23.89° C | 28% | 1011.7 hPa | 0 mm | - | - | - |
| 1778016000 | 23.89° C | 31% | 1011.8 hPa | 0 mm | - | - | - |
| 1778015401 | 23.89° C | 31% | 1011.8 hPa | 0 mm | - | - | - |
| 1778014803 | 23.33° C | 30% | 1011.9 hPa | 0 mm | - | - | - |
| 1778014201 | 23.33° C | 30% | 1011.8 hPa | 0 mm | - | - | - |
* Rain latest hour (hover to see other rain measurements)
** Current wind speed in m/s (hover to see current wind gust speed)